Location: S�tio Afonso Gruber
(26.1760°S, 49.5250°W)
Time: 23:57:10
(UTC+00:00)

Intelsat 5-3 Rocket - Pass Details

Date: 03 October 2020
Orbit: 281 x 6111 km, 23.6° (Epoch: 22 October)

Event Time Altitude Azimuth Distance (km) Brightness Sun altitude
Exits shadow 08:05:43 - 263° (W) 8,075 7.6 -11.8°
Reaches altitude 10° 08:06:21 10° 264° (W) 8,030 7.6 -11.7°
Maximum altitude 08:41:16 53° 330° (NNW) 6,799 7.6 -3.9°
Drops below altitude 10° 09:14:20 10° 39° (NE) 7,533 8.6 3.5°
Sets 09:19:21 0° 45° (NE) 7,918 8.9 4.6°
